sat.trackr.live / text

‹ back to catalog

STARLINK-4764

NORAD 53827 · 2022-114K

PAYLOAD ACTIVE UNKNOWN

§ Identity

Operator
Country
US
Launch date
2022-09-19
Launch site
AFETR
Launch vehicle
Mass (kg)
RCS (m²)

Purposes: comms

External: N2YO · Heavens-Above · Gunter

§ Orbital elements

Epoch: 2026-05-24T18:05:58.923744Z

Period
95.44 min
Inclination
53.2152°
Eccentricity
0.0001237
Mean motion
15.08841490 rev/d
Perigee alt
538.9 km
Apogee alt
540.6 km
Semi-major
6,917.9 km
B*
4.8455e-5
RAAN
322.7166°
Arg perigee
89.7489°
Mean anomaly
270.3645°
Rev number
20,431

§ Raw data

STARLINK-47641 53827U 22114K   26144.75415421  .00000483  00000+0  48455-4 0  99952 53827  53.2152 322.7166 0001237  89.7489 270.3645 15.08841490204317

JSON: /api/v1/satellites/53827 · /tle

For live sub-satellite position, see the globe view (requires WebGL).

§ Visibility from observer

Set your observer location to see the next 7 days of passes ≥ 10°. The values pass through the URL so the page stays shareable.

No JS? Fill the form by hand. The geolocation button needs JavaScript.